This is the latest recevied weather packets stored in our database for station/object PY2FGD-15. If no packets are shown the sender has not sent any weather packets the latest 10 day(s).
| Time | Temp. | Humidity | Pressure | Rain* | Wind** | Luminosity | Snow |
|---|---|---|---|---|---|---|---|
| 1777521606 | 17.78° C | 89% | 1016 hPa | 2.54 mm | - | - | - |
| 1777514403 | 17.22° C | 82% | 1016 hPa | 2.54 mm | - | - | - |
| 1777512004 | 18.89° C | 82% | 1016 hPa | 2.54 mm | - | - | - |
| 1777507805 | 20.56° C | 82% | 1015 hPa | 2.54 mm | - | - | - |
| 1777499405 | 21.67° C | 73% | 1014 hPa | 2.54 mm | - | - | - |
| 1777484403 | 27.22° C | 75% | 1012 hPa | 2.54 mm | - | - | - |
| 1777477804 | 22.78° C | 86% | 1014 hPa | 2.54 mm | - | - | - |
| 1777474804 | 22.78° C | 88% | 1015 hPa | 2.54 mm | - | - | - |
| 1777467610 | 21.11° C | 91% | 1016 hPa | 2.54 mm | - | - | - |
| 1777465803 | 20.56° C | 90% | 1016 hPa | 2.54 mm | - | - | - |
| 1777462203 | 19.44° C | 91% | 1016 hPa | 2.54 mm | - | - | - |
| 1777459808 | 19.44° C | 93% | 1016 hPa | 2.54 mm | - | - | - |
| 1777453203 | 16.67° C | 98% | 1015 hPa | 2.54 mm | - | - | - |
| 1777452603 | 17.22° C | 98% | 1015 hPa | 2.54 mm | - | - | - |
| 1777451403 | 17.78° C | 98% | 1015 hPa | 2.54 mm | - | - | - |
| 1777447203 | 15.56° C | 97% | 1015 hPa | 2.54 mm | - | - | - |
| 1777443003 | 18.33° C | 97% | 1015 hPa | 2.54 mm | - | - | - |
| 1777441204 | 15.56° C | 95% | 1015 hPa | 2.54 mm | - | - | - |
| 1777440004 | 16.11° C | 95% | 1016 hPa | 2.54 mm | - | - | - |
| 1777432803 | 16.11° C | 94% | 1017 hPa | 2.54 mm | - | - | - |
| 1777432205 | 16.67° C | 94% | 1017 hPa | 2.54 mm | - | - | - |
| 1777426804 | 15.56° C | 91% | 1017 hPa | 2.54 mm | - | - | - |
| 1777424403 | 17.22° C | 91% | 1017 hPa | 2.54 mm | - | - | - |
| 1777423805 | 17.78° C | 91% | 1017 hPa | 2.54 mm | - | - | - |
| 1777420804 | 19.44° C | 91% | 1017 hPa | 2.54 mm | - | - | - |
* Rain latest hour (hover to see other rain measurements)
** Current wind speed in m/s (hover to see current wind gust speed)